Sacramento / Mc Clellan, CA

1:49 AM PDT on June 26, 2017 (GMT -0700)
McClellan

Weather History for KMCC - March, 2013

Change the Weather History Date:

Thursday, March 28, 2013

  Actual Average (KMHR) Record (KMHR)
Temperature  
Mean Temperature 60 °F -  
Max Temperature 68 °F 66 °F 82 °F (2015)
Min Temperature 51 °F 42 °F 37 °F (2011)
Degree Days  
Heating Degree Days 4    
Growing Degree Days 10 (Base 50)    
Moisture  
Dew Point 50 °F    
Average Humidity 72    
Maximum Humidity 94    
Minimum Humidity 49    
Precipitation  
Precipitation 0.00 in - - ()
Sea Level Pressure  
Sea Level Pressure 30.07 in    
Wind  
Wind Speed 6 mph (SW)    
Max Wind Speed 9 mph    
Max Gust Speed -    
Visibility 10 miles    
Events      
Averages and records for this station are not official NWS values.
T = Trace of Precipitation, MM = Missing Value Source: NWS Daily Summary

Daily Weather History Graph

Daily Weather History Graph

Search for Another Location

Airport or City:

Trip Planner

Search our weather history database for the weather conditions in past years. The results will help you decide how hot, cold, wet, or windy it might be!

Date:

Astronomy

Mar. 28, 2013 Rise Set
Actual Time 6:56 AM PDT 7:25 PM PDT
Civil Twilight 6:29 AM PDT 7:52 PM PDT
Nautical Twilight 5:58 AM PDT 8:23 PM PDT
Astronomical Twilight 5:25 AM PDT 8:55 PM PDT
Moon 9:21 PM PDT (3/28) 7:28 AM PDT (3/28)
Length of Visible Light 13h 22m
Length of Day
12h 29m
Full, 98% of the Moon is Illuminated
Mar 28
Full
Apr 2
Last Quarter
Apr 10
New
Apr 18
First Quarter
Apr 25
Full

Hourly Weather History & Observations

Time (PDT) Temp. Dew Point Humidity Pressure Visibility Wind Dir Wind Speed Gust Speed Precip Events Conditions
12:05 AM 53.6 °F 48.2 °F 82% 30.03 in 10.0 mi SSE 6.9 mph - N/A   Overcast
12:25 AM 55.4 °F 48.2 °F 77% 30.03 in 10.0 mi South 8.1 mph - N/A   Overcast
12:45 AM 55.4 °F 50.0 °F 82% 30.04 in 10.0 mi SSE 9.2 mph - N/A   Overcast
1:05 AM 53.6 °F 50.0 °F 88% 30.04 in 10.0 mi SSE 8.1 mph - N/A   Overcast
1:25 AM 55.4 °F 50.0 °F 82% 30.03 in 10.0 mi SSE 9.2 mph - N/A   Overcast
1:45 AM 55.4 °F 48.2 °F 77% 30.04 in 10.0 mi South 8.1 mph - N/A   Overcast
2:05 AM 55.4 °F 48.2 °F 77% 30.04 in 10.0 mi South 9.2 mph - N/A   Overcast
2:25 AM 55.4 °F 48.2 °F 77% 30.04 in 10.0 mi South 8.1 mph - N/A   Overcast
2:45 AM 55.4 °F 50.0 °F 82% 30.04 in 10.0 mi South 6.9 mph - N/A   Overcast
3:05 AM 55.4 °F 50.0 °F 82% 30.04 in 10.0 mi South 8.1 mph - N/A   Unknown
3:25 AM 55.4 °F 50.0 °F 82% 30.03 in 10.0 mi SSE 6.9 mph - N/A   Unknown
3:45 AM 55.4 °F 50.0 °F 82% 30.04 in 10.0 mi SSE 6.9 mph - N/A   Overcast
4:05 AM 55.4 °F 50.0 °F 82% 30.04 in 9.0 mi South 6.9 mph - N/A   Overcast
4:25 AM 55.4 °F 50.0 °F 82% 30.04 in 9.0 mi SSE 5.8 mph - N/A   Overcast
4:45 AM 55.4 °F 50.0 °F 82% 30.04 in 9.0 mi SSE 5.8 mph - N/A   Overcast
5:05 AM 55.4 °F 50.0 °F 82% 30.05 in 10.0 mi SE 6.9 mph - N/A   Overcast
5:25 AM 55.4 °F 50.0 °F 82% 30.04 in 9.0 mi SE 4.6 mph - N/A   Overcast
5:45 AM 55.4 °F 50.0 °F 82% 30.04 in 10.0 mi SE 5.8 mph - N/A   Overcast
6:05 AM 55.4 °F 50.0 °F 82% 30.05 in 10.0 mi SSE 5.8 mph - N/A   Overcast
6:25 AM 55.4 °F 50.0 °F 82% 30.05 in 9.0 mi SE 4.6 mph - N/A   Overcast
6:45 AM 55.4 °F 50.0 °F 82% 30.05 in 10.0 mi SE 4.6 mph - N/A   Overcast
7:05 AM 55.4 °F 50.0 °F 82% 30.05 in 8.0 mi ESE 5.8 mph - N/A   Overcast
7:25 AM 55.4 °F 50.0 °F 82% 30.06 in 8.0 mi SE 5.8 mph - N/A   Overcast
7:45 AM 55.4 °F 50.0 °F 82% 30.07 in 7.0 mi SSE 3.5 mph - N/A   Overcast
8:05 AM 55.4 °F 50.0 °F 82% 30.07 in 8.0 mi South 3.5 mph - N/A   Overcast
8:25 AM 57.2 °F 50.0 °F 77% 30.08 in 8.0 mi SSW 3.5 mph - N/A   Overcast
8:45 AM 57.2 °F 50.0 °F 77% 30.08 in 8.0 mi South 4.6 mph - N/A   Overcast
9:05 AM 57.2 °F 50.0 °F 77% 30.09 in 9.0 mi SSW 5.8 mph - N/A   Overcast
9:25 AM 59.0 °F 50.0 °F 72% 30.10 in 10.0 mi SSW 5.8 mph - N/A   Overcast
9:45 AM 59.0 °F 50.0 °F 72% 30.11 in 10.0 mi SW 5.8 mph - N/A   Overcast
10:05 AM 59.0 °F 50.0 °F 72% 30.11 in 9.0 mi SW 6.9 mph - N/A   Overcast
10:25 AM 59.0 °F 50.0 °F 72% 30.11 in 10.0 mi WSW 5.8 mph - N/A   Mostly Cloudy
10:45 AM 62.6 °F 50.0 °F 63% 30.11 in 10.0 mi SW 5.8 mph - N/A   Partly Cloudy
11:05 AM 62.6 °F 50.0 °F 63% 30.11 in 10.0 mi SSW 4.6 mph - N/A   Scattered Clouds
11:25 AM 60.8 °F 50.0 °F 68% 30.11 in 10.0 mi SW 4.6 mph - N/A   Mostly Cloudy
11:45 AM 62.6 °F 50.0 °F 63% 30.11 in 10.0 mi Calm Calm - N/A   Overcast
12:05 PM 62.6 °F 50.0 °F 63% 30.10 in 10.0 mi ENE 3.5 mph - N/A   Mostly Cloudy
12:25 PM 64.4 °F 50.0 °F 59% 30.10 in 10.0 mi Calm Calm - N/A   Partly Cloudy
12:45 PM 64.4 °F 50.0 °F 59% 30.09 in 10.0 mi Calm Calm - N/A   Clear
1:05 PM 66.2 °F 50.0 °F 56% 30.09 in 10.0 mi Calm Calm - N/A   Partly Cloudy
1:25 PM 64.4 °F 48.2 °F 56% 30.09 in 10.0 mi East 6.9 mph - N/A   Partly Cloudy
1:45 PM 66.2 °F 50.0 °F 56% 30.09 in 9.0 mi WSW 4.6 mph - N/A   Mostly Cloudy
2:05 PM 66.2 °F 48.2 °F 52% 30.09 in 10.0 mi SSE 3.5 mph - N/A   Scattered Clouds
2:25 PM 66.2 °F 50.0 °F 56% 30.08 in 10.0 mi West 5.8 mph - N/A   Mostly Cloudy
2:45 PM 66.2 °F 50.0 °F 56% 30.08 in 10.0 mi WNW 4.6 mph - N/A   Mostly Cloudy
3:05 PM 66.2 °F 50.0 °F 56% 30.07 in 10.0 mi West 5.8 mph - N/A   Scattered Clouds
3:25 PM 66.2 °F 50.0 °F 56% 30.07 in 10.0 mi West 3.5 mph - N/A   Partly Cloudy
3:45 PM 66.2 °F 48.2 °F 52% 30.06 in 10.0 mi North 5.8 mph - N/A   Clear
4:05 PM 68.0 °F 50.0 °F 52% 30.06 in 10.0 mi North 3.5 mph - N/A   Partly Cloudy
4:25 PM 68.0 °F 48.2 °F 49% 30.06 in 10.0 mi ENE 4.6 mph - N/A   Clear
4:45 PM 66.2 °F 48.2 °F 52% 30.06 in 10.0 mi NNW 8.1 mph - N/A   Clear
5:05 PM 68.0 °F 48.2 °F 49% 30.06 in 10.0 mi NNW 8.1 mph - N/A   Clear
5:25 PM 68.0 °F 48.2 °F 49% 30.06 in 10.0 mi NNW 6.9 mph - N/A   Clear
5:45 PM 66.2 °F 48.2 °F 52% 30.06 in 10.0 mi NNW 4.6 mph - N/A   Clear
6:05 PM 66.2 °F 48.2 °F 52% 30.06 in 10.0 mi North 5.8 mph - N/A   Scattered Clouds
6:25 PM 66.2 °F 51.8 °F 60% 30.06 in 10.0 mi NNW 8.1 mph - N/A   Scattered Clouds
6:45 PM 64.4 °F 51.8 °F 64% 30.07 in 10.0 mi NNW 8.1 mph - N/A   Partly Cloudy
7:05 PM 62.6 °F 51.8 °F 68% 30.06 in 10.0 mi NNW 9.2 mph - N/A   Clear
7:25 PM 62.6 °F 51.8 °F 68% 30.07 in 9.0 mi NW 9.2 mph - N/A   Clear
7:45 PM 60.8 °F 51.8 °F 72% 30.07 in 10.0 mi NNW 6.9 mph - N/A   Clear
8:05 PM 59.0 °F 51.8 °F 77% 30.08 in 10.0 mi NNW 6.9 mph - N/A   Clear
8:25 PM 59.0 °F 51.8 °F 77% 30.08 in 10.0 mi NNW 8.1 mph - N/A   Clear
8:45 PM 57.2 °F 50.0 °F 77% 30.09 in 10.0 mi North 8.1 mph - N/A   Clear
9:05 PM 57.2 °F 50.0 °F 77% 30.09 in 10.0 mi North 8.1 mph - N/A   Clear
9:25 PM 55.4 °F 50.0 °F 82% 30.10 in 10.0 mi North 6.9 mph - N/A   Clear
9:45 PM 55.4 °F 50.0 °F 82% 30.10 in 10.0 mi North 5.8 mph - N/A   Clear
10:05 PM 55.4 °F 51.8 °F 88% 30.10 in 10.0 mi North 6.9 mph - N/A   Clear
10:25 PM 55.4 °F 50.0 °F 82% 30.11 in 10.0 mi North 8.1 mph - N/A   Clear
10:45 PM 55.4 °F 51.8 °F 88% 30.11 in 10.0 mi North 5.8 mph - N/A   Clear
11:05 PM 53.6 °F 50.0 °F 88% 30.11 in 10.0 mi NW 4.6 mph - N/A   Clear
11:25 PM 53.6 °F 50.0 °F 88% 30.11 in 7.0 mi NW 4.6 mph - N/A   Clear
11:45 PM 51.8 °F 50.0 °F 94% 30.11 in 7.0 mi NNW 3.5 mph - N/A   Clear